Location: Sternwarte ZA, Rosenfeld-Brittheim
(48.2889°N, 8.6789°E)
Time: 19:40:06
(UTC+02:00)

ISS - Pass Details

Date: 15 July 2019
Orbit: 409 x 418 km, 51.6° (Epoch: 20 July)

Event Time Altitude Azimuth Distance (km) Brightness Sun altitude
Exits shadow 02:20:42 - 278° (W) 1,702 -0.7 -19.2°
Reaches altitude 10° 02:21:15 10° 280° (W) 1,484 -1.0 -19.2°
Maximum altitude 02:24:28 46° 355° (N) 568 -2.7 -19.1°
Drops below altitude 10° 02:27:41 10° 70° (ENE) 1,481 -0.6 -19.0°
Sets 02:29:50 0° 77° (ENE) 2,342 0.4 -18.9°
